User: anonymous   Login
Location: Niverville
(49.6028°N, 97.0419°W)
Time: 17:53:53
(UTC-05:00)
Language:

Cosmos 2237 Rocket - Orbit

View from above orbital plane
View from above orbital plane
View from above satellite
View from above satellite

Ground track
Ground track

The orbit data is extracted from the following two-line orbital elements,

1 22566U 93016B   17113.77149306 -.00000058 +00000-0 -54301-5 0  9993
2 22566 071.0080 181.1476 0011899 225.8529 134.1616 14.14950292243567
Epoch (UTC): 23 April 2017 18:30:57
Eccentricity: 0.0011899
inclination: 71.0080°
perigee height: 834 km
apogee height: 851 km
right ascension of ascending node: 181.1476°
argument of perigee: 225.8529°
revolutions per day: 14.14950292
mean anomaly at epoch: 134.1616°
orbit number at epoch: 24356

The dashed part of the orbit path shows where the satellite is in the earth's shadow,  

DLR